sat.trackr.live / text

‹ back to catalog

JILIN-1 GAOFEN 2D

NORAD 49256 · 2021-086A

PAYLOAD ACTIVE UNKNOWN

§ Identity

Operator
Country
PRC
Launch date
2021-09-27
Launch site
JSC
Launch vehicle
Mass (kg)
RCS (m²)

External: N2YO · Heavens-Above · Gunter

§ Orbital elements

Epoch: 2026-05-25T04:09:28.260000Z

Period
95.34 min
Inclination
97.6443°
Eccentricity
0.0032651
Mean motion
15.10395240 rev/d
Perigee alt
512.4 km
Apogee alt
557.6 km
Semi-major
6,913.1 km
B*
2.4514e-4
RAAN
267.9271°
Arg perigee
221.4086°
Mean anomaly
138.4668°
Rev number
25,724

§ Raw data

JILIN-1 GAOFEN 2D1 49256U 21086A   26145.17324375  .00004009  00000+0  24514-3 0  99942 49256  97.6443 267.9271 0032651 221.4086 138.4668 15.10395240257241

JSON: /api/v1/satellites/49256 · /tle

For live sub-satellite position, see the globe view (requires WebGL).

§ Visibility from observer

Set your observer location to see the next 7 days of passes ≥ 10°. The values pass through the URL so the page stays shareable.

No JS? Fill the form by hand. The geolocation button needs JavaScript.

§ Radio — SatNOGS DB

ModeDescriptionDownlinkUplink
BPSK S-band telemetry 2.219 GHz

1 transmitter · refreshed weekly from db.satnogs.org